Location: *
(60.1759°S, 155.0663°W)
Time: 08:39:38
(UTC+00:00)

PSLV R/B - Pass Details

Date: 17 September 2019
Orbit: 504 x 581 km, 97.8° (Epoch: 20 October)

Event Time Altitude Azimuth Distance (km) Brightness Sun altitude
Rises 13:35:30 0° 28° (NNE) 2,639 7.2 -20.6°
Reaches altitude 10° 13:37:36 10° 30° (NNE) 1,753 6.3 -20.4°
Maximum altitude 13:41:20 64° 112° (ESE) 582 4.1 -20.0°
Drops below altitude 10° 13:45:06 10° 192° (SSW) 1,768 6.6 -19.6°
Sets 13:47:13 0° 195° (SSW) 2,664 7.5 -19.4°
